When you browse on this site, cookies collect data to enhance your experience and personalize the content and advertising you see.
Visit our Privacy Policy to learn more. By continuing to use the site, you agree to this use of cookies and data.
  • In Hungary
  • List of Countries
  • For 7 days
  • Water Temperature
  • Weather Map
  • News
  • Weather Widgets
  • user-avatar
    Login

    Hourly Weather Sosnowe

    Today, 20 September, Friday

    Time Temperature Precipitation Wind Pressure Humidity
    00:00 +5°C° 0 mm 4 mps 754 mmHg 88%
    01:00 +5°C° 0 mm 4 mps 754 mmHg 90%
    02:00 +4°C° 0 mm 4 mps 754 mmHg 91%
    03:00 +4°C° 0 mm 4 mps 754 mmHg 91%
    04:00 +4°C° 0 mm 4 mps 755 mmHg 91%
    05:00 +5°C° 0 mm 4 mps 755 mmHg 87%
    06:00 +5°C° 0 mm 4 mps 755 mmHg 84%
    07:00 +6°C° 0 mm 4 mps 755 mmHg 80%
    08:00 +8°C° 0 mm 4 mps 755 mmHg 71%
    09:00 +10°C° 0 mm 4 mps 755 mmHg 62%
    10:00 +12°C° 0 mm 5 mps 755 mmHg 53%
    11:00 +12°C° 0.1 mm 5 mps 755 mmHg 53%
    12:00 +12°C° 0.1 mm 4 mps 755 mmHg 53%
    13:00 +13°C° 0.1 mm 4 mps 755 mmHg 54%
    14:00 +12°C° 0.1 mm 4 mps 754 mmHg 55%
    15:00 +12°C° 0.1 mm 4 mps 754 mmHg 55%
    16:00 +12°C° 0.1 mm 4 mps 754 mmHg 56%
    17:00 +11°C° 0 mm 3 mps 754 mmHg 60%
    18:00 +10°C° 0 mm 2 mps 754 mmHg 64%
    19:00 +8°C° 0 mm 2 mps 754 mmHg 69%
    20:00 +8°C° 0 mm 2 mps 754 mmHg 69%
    21:00 +8°C° 0 mm 2 mps 754 mmHg 68%
    22:00 +8°C° 0 mm 2 mps 754 mmHg 68%
    23:00 +8°C° 0 mm 3 mps 754 mmHg 69%

    Tomorrow, 21 September, Saturday

    Time Temperature Precipitation Wind Pressure Humidity
    00:00 +9°C° 0 mm 3 mps 754 mmHg 69%
    01:00 +10°C° 0 mm 4 mps 754 mmHg 69%
    02:00 +10°C° 0.1 mm 4 mps 753 mmHg 73%
    03:00 +10°C° 0.1 mm 4 mps 753 mmHg 77%
    04:00 +9°C° 0.1 mm 5 mps 753 mmHg 81%
    05:00 +9°C° 0 mm 5 mps 753 mmHg 82%
    06:00 +9°C° 0 mm 5 mps 753 mmHg 84%
    07:00 +10°C° 0 mm 6 mps 753 mmHg 85%
    08:00 +11°C° 0 mm 6 mps 753 mmHg 81%
    09:00 +13°C° 0 mm 6 mps 753 mmHg 78%
    10:00 +14°C° 0 mm 6 mps 753 mmHg 74%
    11:00 +14°C° 0 mm 6 mps 753 mmHg 73%
    12:00 +14°C° 0 mm 6 mps 753 mmHg 71%
    13:00 +15°C° 0 mm 6 mps 753 mmHg 70%
    14:00 +15°C° 0 mm 5 mps 753 mmHg 72%
    15:00 +14°C° 0 mm 5 mps 752 mmHg 73%
    16:00 +14°C° 0 mm 4 mps 752 mmHg 75%
    17:00 +13°C° 0 mm 3 mps 752 mmHg 79%
    18:00 +12°C° 0 mm 3 mps 752 mmHg 82%
    19:00 +12°C° 0 mm 2 mps 752 mmHg 86%
    20:00 +10°C° 0 mm 2 mps 752 mmHg 88%
    21:00 +10°C° 0 mm 2 mps 752 mmHg 89%
    22:00 +10°C° 0 mm 2 mps 753 mmHg 91%
    23:00 +9°C° 0 mm 2 mps 752 mmHg 92%

    Day after tomorrow, 22 September, Sunday

    Time Temperature Precipitation Wind Pressure Humidity
    00:00 +9°C° 0 mm 2 mps 752 mmHg 92%
    01:00 +9°C° 0 mm 2 mps 752 mmHg 93%
    02:00 +9°C° 0 mm 2 mps 752 mmHg 93%
    03:00 +9°C° 0 mm 2 mps 752 mmHg 93%
    04:00 +9°C° 0 mm 2 mps 752 mmHg 93%
    05:00 +9°C° 0 mm 2 mps 752 mmHg 91%
    06:00 +10°C° 0 mm 2 mps 752 mmHg 89%
    07:00 +12°C° 0 mm 2 mps 752 mmHg 87%
    08:00 +13°C° 0 mm 3 mps 752 mmHg 79%
    09:00 +16°C° 0 mm 3 mps 752 mmHg 70%
    10:00 +18°C° 0 mm 3 mps 752 mmHg 62%
    11:00 +19°C° 0 mm 3 mps 752 mmHg 58%
    12:00 +20°C° 0 mm 3 mps 751 mmHg 54%
    13:00 +21°C° 0 mm 3 mps 751 mmHg 50%
    14:00 +21°C° 0 mm 3 mps 751 mmHg 51%
    15:00 +21°C° 0 mm 2 mps 750 mmHg 53%
    16:00 +22°C° 0 mm 1 mps 750 mmHg 55%
    17:00 +20°C° 0 mm 1 mps 750 mmHg 59%
    18:00 +18°C° 0 mm 1 mps 749 mmHg 64%
    19:00 +14°C° 0 mm 0 mps 749 mmHg 69%
    20:00 +14°C° 0 mm 1 mps 749 mmHg 70%
    21:00 +14°C° 0 mm 1 mps 749 mmHg 71%
    22:00 +14°C° 0 mm 1 mps 749 mmHg 71%
    23:00 +13°C° 0 mm 1 mps 749 mmHg 72%

    23 September, Monday

    Time Temperature Precipitation Wind Pressure Humidity
    00:00 +13°C° 0 mm 2 mps 749 mmHg 73%
    01:00 +13°C° 0 mm 2 mps 749 mmHg 75%
    02:00 +12°C° 0 mm 2 mps 748 mmHg 74%
    03:00 +12°C° 0 mm 2 mps 748 mmHg 74%
    04:00 +12°C° 0 mm 2 mps 748 mmHg 74%
    05:00 +11°C° 0 mm 3 mps 748 mmHg 73%
    06:00 +12°C° 0 mm 3 mps 747 mmHg 71%
    07:00 +12°C° 0 mm 4 mps 747 mmHg 70%
    08:00 +14°C° 0 mm 4 mps 747 mmHg 65%
    09:00 +16°C° 0 mm 5 mps 747 mmHg 59%
    10:00 +19°C° 0 mm 5 mps 747 mmHg 54%
    11:00 +20°C° 0 mm 5 mps 747 mmHg 51%
    12:00 +20°C° 0 mm 5 mps 746 mmHg 48%
    13:00 +21°C° 0 mm 5 mps 746 mmHg 46%
    14:00 +20°C° 0 mm 4 mps 745 mmHg 50%
    15:00 +20°C° 0 mm 3 mps 745 mmHg 54%
    16:00 +19°C° 0 mm 3 mps 745 mmHg 58%
    17:00 +17°C° 0 mm 3 mps 745 mmHg 66%
    18:00 +15°C° 0 mm 2 mps 745 mmHg 74%
    19:00 +14°C° 0 mm 2 mps 745 mmHg 83%
    20:00 +13°C° 0 mm 1 mps 745 mmHg 85%
    21:00 +13°C° 0 mm 1 mps 745 mmHg 88%
    22:00 +11°C° 0 mm 0 mps 745 mmHg 91%
    23:00 +12°C° 0 mm 1 mps 746 mmHg 92%

    24 September, Tuesday

    Time Temperature Precipitation Wind Pressure Humidity
    00:00 +12°C° 0 mm 1 mps 746 mmHg 92%
    01:00 +10°C° 0 mm 2 mps 746 mmHg 93%
    02:00 +10°C° 0 mm 2 mps 746 mmHg 93%
    03:00 +10°C° 0 mm 2 mps 746 mmHg 94%
    04:00 +9°C° 0 mm 2 mps 746 mmHg 94%
    05:00 +10°C° 0 mm 2 mps 746 mmHg 93%
    06:00 +10°C° 0 mm 2 mps 746 mmHg 91%
    07:00 +11°C° 0 mm 3 mps 746 mmHg 89%
    08:00 +13°C° 0 mm 3 mps 747 mmHg 81%
    09:00 +16°C° 0 mm 3 mps 747 mmHg 72%
    10:00 +18°C° 0 mm 3 mps 747 mmHg 64%
    11:00 +19°C° 0 mm 3 mps 747 mmHg 60%
    12:00 +20°C° 0 mm 3 mps 747 mmHg 56%
    13:00 +20°C° 0 mm 3 mps 747 mmHg 52%
    14:00 +20°C° 0 mm 3 mps 747 mmHg 54%
    15:00 +20°C° 0 mm 3 mps 747 mmHg 56%
    16:00 +19°C° 0 mm 3 mps 747 mmHg 58%
    17:00 +18°C° 0 mm 3 mps 747 mmHg 64%
    18:00 +16°C° 0 mm 3 mps 748 mmHg 70%
    19:00 +13°C° 0 mm 3 mps 748 mmHg 77%
    20:00 +12°C° 0 mm 3 mps 748 mmHg 78%
    21:00 +11°C° 0 mm 3 mps 748 mmHg 80%
    22:00 +11°C° 0 mm 3 mps 748 mmHg 82%
    23:00 +10°C° 0 mm 3 mps 748 mmHg 83%

    25 September, Wednesday

    Time Temperature Precipitation Wind Pressure Humidity
    00:00 +10°C° 0 mm 3 mps 748 mmHg 84%
    01:00 +9°C° 0 mm 3 mps 748 mmHg 85%
    02:00 +9°C° 0 mm 3 mps 748 mmHg 85%
    03:00 +9°C° 0 mm 3 mps 748 mmHg 85%
    04:00 +8°C° 0 mm 3 mps 747 mmHg 85%
    05:00 +9°C° 0 mm 3 mps 747 mmHg 82%
    06:00 +8°C° 0 mm 4 mps 747 mmHg 80%
    07:00 +10°C° 0 mm 4 mps 747 mmHg 77%
    08:00 +12°C° 0 mm 4 mps 747 mmHg 73%
    09:00 +13°C° 0 mm 4 mps 747 mmHg 68%
    10:00 +15°C° 0 mm 5 mps 747 mmHg 64%
    11:00 +17°C° 0 mm 4 mps 747 mmHg 61%
    12:00 +18°C° 0 mm 4 mps 746 mmHg 58%
    13:00 +19°C° 0 mm 4 mps 745 mmHg 55%
    14:00 +19°C° 0.1 mm 4 mps 745 mmHg 59%
    15:00 +18°C° 0.1 mm 3 mps 745 mmHg 62%
    16:00 +18°C° 0.1 mm 3 mps 744 mmHg 65%
    17:00 +17°C° 0.1 mm 3 mps 744 mmHg 70%
    18:00 +16°C° 0.1 mm 3 mps 744 mmHg 75%
    19:00 +16°C° 0.1 mm 3 mps 744 mmHg 80%
    20:00 +14°C° 0.1 mm 3 mps 744 mmHg 82%
    21:00 +14°C° 0.1 mm 3 mps 744 mmHg 85%
    22:00 +14°C° 0.1 mm 3 mps 743 mmHg 87%
    23:00 +14°C° 0.1 mm 3 mps 743 mmHg 87%
    Show more